Location: Bonn
(50.7330°N, 7.1000°E)
Time: 05:55:33
(UTC+02:00)

Iridium 67 - Visible Passes

Search period start: 22 August 2014 00:00
Search period end: 01 September 2014 00:00
Orbit: 776 x 779 km, 86.4° (Epoch: 21 August)

Date Brightness Start Highest point End Pass type
(mag) Time Alt. Az. Time Alt. Az. Time Alt. Az.
22 Aug 8.3 00:00:00 16° N 23:59:45 18° N 00:01:04 10° N visible
22 Aug 7.3 21:39:50 11° ESE 21:42:23 15° ENE 21:45:15 10° NE visible
22 Aug 5.5 23:20:17 38° S 23:22:20 89° W 23:27:36 10° N visible
23 Aug 8.0 01:00:56 10° W 01:03:53 15° WNW 01:06:52 10° NNW visible
23 Aug 5.7 22:46:42 32° SSE 22:48:52 55° E 22:53:57 10° NNE visible
24 Aug 7.4 00:27:10 16° WSW 00:29:57 24° WNW 00:34:10 10° NNW visible
24 Aug 6.3 22:13:06 22° SE 22:15:30 33° E 22:20:08 10° NNE visible
24 Aug 6.6 23:53:34 24° SW 23:56:09 39° WNW 00:01:03 10° N visible
25 Aug 6.9 21:39:29 14° ESE 21:42:16 20° ENE 21:46:00 10° NNE visible
25 Aug 5.8 23:19:57 30° SSW 23:22:28 65° W 23:27:41 10° N visible
26 Aug 8.2 01:02:52 10° WNW 01:04:19 11° WNW 01:05:46 10° NW visible
26 Aug 7.4 21:07:10 10° E 21:09:08 12° ENE 21:11:07 10° NE visible
26 Aug 5.4 22:46:19 30° S 22:48:55 76° E 22:54:09 10° N visible
27 Aug 7.8 00:26:46 10° WSW 00:30:17 18° WNW 00:33:51 10° NNW visible
27 Aug 5.9 22:12:40 23° SE 22:15:29 45° E 22:20:26 10° NNE visible
27 Aug 7.2 23:53:07 16° SW 23:56:24 29° WNW 00:00:57 10° NNW visible
28 Aug 6.6 21:38:59 15° SE 21:42:11 27° E 21:46:31 10° NNE visible
28 Aug 6.3 23:19:26 21° SW 23:22:39 48° W 23:27:43 10° N visible
29 Aug 7.1 21:05:47 10° ESE 21:08:59 17° ENE 21:12:11 10° NE visible
29 Aug 5.6 22:45:45 23° S 22:49:02 80° W 22:54:16 10° N visible
30 Aug 8.1 00:28:07 10° W 00:30:41 14° WNW 00:33:15 10° NW visible
30 Aug 5.5 22:12:01 20° SSE 22:15:31 62° E 22:20:40 10° N visible
30 Aug 7.6 23:52:43 10° WSW 23:56:42 22° WNW 00:00:44 10° NNW visible
31 Aug 6.1 21:38:16 14° SE 21:42:08 37° E 21:46:53 10° NNE visible
31 Aug 6.9 23:18:42 13° SW 23:22:53 35° WNW 23:27:40 10° N visible
